Location: Ahausen
(50.4985°N, 8.2722°E)
Time: 23:15:31
(UTC+00:00)

AIST 2D - Visible Passes

Search period start: 27 June 2022 00:00
Search period end: 07 July 2022 00:00
Orbit: 433 x 449 km, 97.1° (Epoch: 27 June)

Date Brightness Start Highest point End Pass type
(mag) Time Alt. Az. Time Alt. Az. Time Alt. Az.
27 Jun ? 21:41:27 10° N 21:44:35 40° WNW 21:47:43 10° SW visible
28 Jun ? 21:03:38 10° NNE 21:06:58 67° ESE 21:10:15 10° S visible
28 Jun ? 22:38:04 10° NW 22:39:05 11° WNW 22:40:06 10° WNW visible
29 Jun ? 20:26:22 10° NE 20:29:07 23° E 20:31:50 10° SSE visible
29 Jun ? 21:58:54 10° N 22:01:42 26° WNW 22:04:31 10° SW visible
30 Jun ? 21:20:48 10° N 21:24:08 73° WNW 21:27:26 10° SSW visible
01 Jul ? 20:43:13 10° NNE 20:46:20 36° E 20:49:27 10° SSE visible
01 Jul ? 22:16:25 10° NNW 22:18:43 17° WNW 22:21:00 10° WSW visible
02 Jul ? 21:37:59 10° N 21:41:11 43° WNW 21:44:22 10° SW visible
03 Jul ? 21:00:08 10° NNE 21:03:27 61° E 21:06:45 10° S visible
03 Jul ? 22:34:16 10° NW 22:35:36 12° WNW 22:36:56 10° W visible
04 Jul ? 20:22:51 10° NE 20:25:30 22° E 20:28:09 10° SSE visible
04 Jul ? 21:55:13 10° N 21:58:07 28° WNW 22:01:01 10° SW visible
05 Jul ? 21:17:06 10° N 21:20:26 80° WNW 21:23:46 10° SSW visible
06 Jul ? 20:39:28 10° NNE 20:42:33 33° E 20:45:37 10° SSE visible
06 Jul ? 22:12:32 10° NNW 22:14:57 19° WNW 22:17:23 10° WSW visible
